Location: �quirre
(50.4736°N, 2.2351°E)
Time: 15:51:23
(UTC+00:00)

SJ 16-02 - Pass Details

Date: 07 August 2020
Orbit: 607 x 616 km, 75.0° (Epoch: 19 September)

Event Time Altitude Azimuth Distance (km) Brightness Sun altitude
Exits shadow 03:02:11 17° 229° (SW) 1,546 2.7 -11.8°
Maximum altitude 03:05:18 48° 298° (WNW) 813 1.8 -11.5°
Drops below altitude 10° 03:09:35 10° 13° (NNE) 1,982 4.9 -11.0°
Sets 03:11:55 0° 19° (NNE) 2,890 6.0 -10.7°
